Find Starlink 1686

NORAD ID: 46328 Int'l Des: 2020-062 Owner: SPXS Country: US Constellation: starlink operational
LEOCIRCULAR

Live Position

Loading 3D Globe...

About Starlink 1686

Description loading...

Upcoming Passes

Passes for default location (London). Set your location on the main map for personalized predictions.

Altitude History

Loading altitude history...

Two-Line Element Set

1 46328U 20062D 26121.58335647 .00401133 70633-4 13547-2 0 9993
2 46328 53.0355 49.5005 0009233 120.4076 68.8245 15.89399890 5948
Epoch: May 1, 2026 • Age: 9 hours

Current Status

Altitude 301.5 km
Velocity 7.74 km/s
Sub-Earth Point 44.36°N, 20.67°W
Launch Date Sep 3, 2020
Age 5.6 years
Type internet

Technical Details

Classification Payload
Mass 260.00 kg
Dry Mass 248.00 kg
Total Mass 260.00 kg
Length 0.20 m
Diameter 2.80 m
Span 9.00 m
Shape Box + pan
Manufacturer SPXS
Bus Type Starlink
Phase Status In Orbit
Owner/State SPXS/US

Most Searched